Regional Weather Roundup
Issued by NWS Jackson, KY

Home | Current Version | Previous Version | Graphics & Text | Print | Product List | Glossary On
Versions: 1 2 3 4 5 6 7 8 9 10 11 12 13 14 15 16 17 18 19 20 21 22 23 24 25 26 27 28 29 30 31 32 33 34 35 36 37 38 39 40 41 42 43 44 45 46 47 48 49 50
000
ASUS43 KJKL 250010
RWRJKL

EAST KENTUCKY HOURLY WEATHER ROUNDUP
NATIONAL WEATHER SERVICE JACKSON KY
700 PM EST WED DEC 24 2014

NOTE: "FAIR" INDICATES FEW OR NO CLOUDS BELOW 12,000 FEET WITH
NO SIGNIFICANT WEATHER AND/OR OBSTRUCTIONS TO VISIBILITY.

* THESE REPORTS ARE NOT UNDER NWS QUALITY CONTROL AND MAY NOT
  REPORT WEATHER SUCH AS PRECIPITATION AND FOG.

KYZ079-080-083-085-087-088-110-112-115-119-120-250100
...EASTERN KENTUCKY...

CITY           SKY/WX    TMP DP  RH WIND       PRES   REMARKS
JACKSON        LGT RAIN  44  40  85 SW8G17    29.67R
6HR MIN TEMP:  44; 6HR MAX TEMP:  66; 6HR PCP:  0.03;

LONDON         CLOUDY    44  38  79 W10       29.72R
6HR MIN TEMP:  44; 6HR MAX TEMP:  64; 6HR PCP:  0.03;

SOMERSET*      CLOUDY    41  37  87 W10       29.75R
MONTICELLO*    CLOUDY    44  40  86 W9        29.78R
6HR MIN TEMP:  43; 6HR MAX TEMP:  63; 6HR PCP:  0.18;

MIDDLESBORO*   DRIZZLE   46  40  79 W3G18     29.72R
6HR MIN TEMP:  46; 6HR MAX TEMP:  60; 6HR PCP:  0.02;

HARLAN APT*    CLOUDY    43  43 100 W9        29.70R
BLACK MTN*       N/A     37  37 100 SW5         N/A  WCI  34
PIKEVILLE APT* LGT RAIN  46  43  87 W15G24    29.63R
BIG SANDY*     CLOUDY    49  43  79 W16G23    29.63R
6HR MIN TEMP:  49; 6HR MAX TEMP:  66;

MOREHEAD APT*  LGT RAIN  43  39  87 W12G24    29.68R
$$

KYZ035-036-041-042-044-050-067-078-099-250100
...CENTRAL KENTUCKY...

CITY           SKY/WX    TMP DP  RH WIND       PRES   REMARKS
MT STERLING*   CLOUDY    43  39  87 W12G22    29.68R
FLEMING/MASON* CLOUDY    41  39  93 W15G24    29.67R
DANVILLE*      CLOUDY    41  36  81 W12G22    29.72R
RICHMOND*      CLOUDY    43  37  81 W13G18    29.70R
LEXINGTON      CLOUDY    42  38  85 W12       29.69R
6HR MIN TEMP:  42; 6HR MAX TEMP:  60; 6HR PCP:  0.18;

FRANKFORT      CLOUDY    42  37  82 W14G20    29.67R
6HR MIN TEMP:  42; 6HR MAX TEMP:  58; 6HR PCP:  0.11;

$$

KYZ091>093-OHZ055-061-077-WVZ005-015-034-035-042-250100
...SOUTHERN OHIO/WEST VIRGINIA...

CITY           SKY/WX    TMP DP  RH WIND       PRES   REMARKS
COVINGTON      CLOUDY    42  35  76 W9        29.61R
COLUMBUS       LGT RAIN  44  40  85 W26G37    29.46R
DAYTON         CLOUDY    40  37  89 W20       29.56R WCI  30
WILMINGTON     LGT RAIN  40  36  86 W20G26    29.57R WCI  30
HUNTINGTON     LGT RAIN  48  44  86 W15G30    29.58R
CHARLESTON     LGT RAIN  52  47  83 W15G32    29.53R
PINEVILLE*     CLOUDY    61  57  86 MISG      29.53S
BECKLEY        CLOUDY    59  51  75 S15G26    29.50S
BLUEFIELD      CLOUDY    61  50  67 SW14G22   29.57R
$$

VAZ002-007-008-TNZ017-027-036-066-071-250100
...SOUTHWEST VIRGINIA/EAST TENNESSEE...

CITY           SKY/WX    TMP DP  RH WIND       PRES   REMARKS
WISE*          CLOUDY    46  45  93 W16G22    29.64R
JONESVILLE*    LGT RAIN  46  45  93 W10       29.71R
ABINGDON*      CLOUDY    64  52  67 SW13      29.57R
BRISTOL        CLOUDY    57  52  83 SW21G40   29.63R
KNOXVILLE      CLOUDY    48  44  86 SW13      29.76R
OAK RIDGE      CLOUDY    47  41  80 W7        29.78R
CROSSVILLE     CLOUDY    42  38  85 W9G17     29.75R
NASHVILLE      DRIZZLE   46  39  76 W6        29.80R
$$

...KEY TO REMARKS...
VSB - VISIBILITY IN MILES
WCI - WIND CHILL INDEX
HX  - HEAT INDEX

$$


USA.gov is the U.S. government's official web portal to all federal, state and local government web resources and services.